Flag for Belarus Weather past 2 weeks in Gomel, Belarus

Now
84 °F

Scattered clouds.


Feels Like: 83 °F
Forecast: 64 / 90 °F
Wind: 8 mph from South

Location: Gomel'

Current Time: Jul 29, 2014 at 12:33:14 PM

Latest Report: Jul 29, 2014 at 12:00 PM


Visibility: N/A

Pressure: 30.09 "Hg

Humidity: 40%

Dew point: 57 °F

Location of GomelLocation

Historic Weather in Gomel — Graph

°F

Gomel temperature yesterday

Maximum temperature yesterday: 88 °F (at 3:00 PM)
Minimum temperature yesterday: 64 °F (at 5:00 AM)
Average temperature yesterday: 78 °F

Past Weeks' High & Low Weather Summary

 TemperatureHumidityPressure
High88 °F (Jul 16, 4:00 PM)100% (Jul 16, 6:00 AM)30.18 "Hg (Jul 16, 6:00 AM)
Low55 °F (Jul 24, 4:00 AM)26% (Jul 24, 1:00 PM)29.83 "Hg (Jul 21, 7:00 AM)
Average73 °F66%30.05 "Hg
* Reported Jul 14 11:00 AM — Jul 29 11:30 AM, Gomel, Weather by CustomWeather, © 2014

Note: Actual official high and low records may vary slightly from our data, if they occured in-between our weather recording intervals... More about our weather records

Advertising

Gomel weather history for previous 24 hours

 ConditionsComfort  
Time TempWeatherWind HumidityBarometerVisibility
11:30 AM
Jul 29
81 °FSunny.6 mph48%30.09 "Hg10 mi
11:00 AM81 °FSunny.6 mph48%30.09 "Hg10 mi
10:30 AM79 °FSunny.6 mph51%30.09 "Hg10 mi
10:00 AM79 °FSunny.6 mph51%30.07 "Hg10 mi
9:30 AM75 °FSunny.6 mph57%30.07 "Hg10 mi
9:00 AM75 °FSunny.6 mph57%30.07 "Hg10 mi
8:30 AM70 °FSunny.6 mph69%30.09 "Hg10 mi
8:00 AM70 °FSunny.3 mph69%30.09 "Hg10 mi
7:30 AM66 °FSunny.3 mph73%30.09 "Hg10 mi
7:00 AM66 °FSunny.3 mph73%30.09 "Hg10 mi
6:30 AM66 °FSunny.3 mph73%30.07 "Hg10 mi
6:00 AM66 °FClear.3 mph73%30.07 "Hg10 mi
5:00 AM64 °FClear.6 mph78%30.09 "Hg10 mi
4:00 AM66 °FClear.6 mph78%30.09 "Hg10 mi
3:00 AM68 °FClear.6 mph73%30.09 "Hg10 mi
2:00 AM68 °FClear.6 mph73%30.09 "Hg10 mi
1:00 AM70 °FClear.6 mph69%30.09 "Hg10 mi
11:00 PM
Jul 28
73 °FClear.6 mph69%30.07 "Hg10 mi
10:00 PM75 °FClear.3 mph65%30.07 "Hg10 mi
9:00 PM79 °FSunny.6 mph58%30.07 "Hg10 mi
8:00 PM82 °FSunny.6 mph42%30.07 "Hg10 mi
7:30 PM84 °FSunny.6 mph37%30.07 "Hg10 mi
7:00 PM84 °FSunny.6 mph37%30.07 "Hg10 mi
6:30 PM86 °FSunny.6 mph35%30.09 "Hg10 mi
6:00 PM86 °FSunny.6 mph35%30.09 "Hg10 mi
5:30 PM88 °FPassing clouds.8 mph33%30.09 "HgN/A
4:30 PM88 °FPassing clouds.6 mph33%30.09 "HgN/A
4:00 PM88 °FPassing clouds.6 mph33%30.12 "HgN/A
3:30 PM88 °FPassing clouds.6 mph31%30.12 "HgN/A
3:00 PM88 °FPassing clouds.3 mph31%30.12 "HgN/A
2:30 PM86 °FPassing clouds.6 mph35%30.15 "HgN/A
2:00 PM86 °FPassing clouds.6 mph35%30.15 "HgN/A
1:30 PM86 °FPassing clouds.8 mph38%30.15 "HgN/A
1:00 PM86 °FPassing clouds.6 mph38%30.15 "HgN/A
12:30 PM84 °FSunny.8 mph37%30.15 "Hg10 mi
12:00 PM84 °FSunny.8 mph37%30.15 "Hg10 mi
Weather by CustomWeather, © 2014

See weather overviewHow to use our weather pages